sat.trackr.live / text

‹ back to catalog

STARLINK-30085

NORAD 56709 · 2023-067X

PAYLOAD ACTIVE UNKNOWN

§ Identity

Operator
Country
US
Launch date
2023-05-19
Launch site
AFETR
Launch vehicle
Mass (kg)
RCS (m²)

Purposes: comms

External: N2YO · Heavens-Above · Gunter

§ Orbital elements

Epoch: 2026-09-20T16:10:00.212448Z

Period
94.27 min
Inclination
43.0025°
Eccentricity
0.0000964
Mean motion
15.27574031 rev/d
Perigee alt
482.4 km
Apogee alt
483.7 km
Semi-major
6,861.2 km
B*
3.5259e-6
RAAN
249.6059°
Arg perigee
272.5982°
Mean anomaly
87.4759°
Rev number
18,526

§ Raw data

STARLINK-300851 56709U 23067X   26263.67361357 -.00000165  00000+0  35259-5 0  99932 56709  43.0025 249.6059 0000964 272.5982  87.4759 15.27574031185269

JSON: /api/v1/satellites/56709 · /tle

For live sub-satellite position, see the globe view (requires WebGL).

§ Visibility from observer

Set your observer location to see the next 7 days of passes ≥ 10°. The values pass through the URL so the page stays shareable.

No JS? Fill the form by hand. The geolocation button needs JavaScript.